Location: Normandy Village
(37.8755°N, 122.2655°W)
Time: 22:51:55
(UTC+00:00)

Okean 3 - Pass Details

Date: 22 September 2019
Orbit: 577 x 600 km, 82.5° (Epoch: 17 October)

Event Time Altitude Azimuth Distance (km) Brightness Sun altitude
Rises 12:59:41 0° 179° (S) 2,778 6.8 -12.0°
Reaches altitude 10° 13:01:52 10° 176° (S) 1,886 6.0 -11.6°
Maximum altitude 13:05:59 66° 94° (E) 638 3.9 -10.8°
Drops below altitude 10° 13:10:10 10° 13° (NNE) 1,911 6.4 -10.0°
Sets 13:12:23 0° 11° (N) 2,820 7.2 -9.6°
